User: anonymous   Login
Location: Newark
(54.3386°S, 169.8415°W)
Time: 22:48:08
(UTC+00:00)
Language:

Altair - Orbit

View from above orbital plane
View from above orbital plane
View from above satellite
View from above satellite

Ground track
Ground track

The orbit data is extracted from the following two-line orbital elements,

1    50U 60009B   19293.01678401 -.00000090  00000-0 -50380-4 0  9992
2    50  47.2294 150.6069 0113695 326.3185  33.0417 12.20109150641195
Epoch (UTC): 20 October 2019 00:24:10
Eccentricity: 0.0113695
inclination: 47.2294°
perigee height: 1501 km
apogee height: 1682 km
right ascension of ascending node: 150.6069°
argument of perigee: 326.3185°
revolutions per day: 12.20109150
mean anomaly at epoch: 33.0417°
orbit number at epoch: 64119

The dashed part of the orbit path shows where the satellite is in the earth's shadow,  

DLR